Weather observations for the past three days for
Edenton, Northeastern Regional Airport
Imperial (Metric)
Date Time (edt) Wind (mph) Vis. (mi.) Weather Sky Cond. Temperature (ºF) Relative Humidity Wind Chill (°F) Heat Index (°F) Pressure Precipitation (in)
Air Dwpt 6 hour altimeter (in) sea level (mb) 1 hr 3 hr 6 hr
Max. Min.
18 02:10 SW 8 10.00 Light Rain SCT007 BKN070 OVC095 77.2 77.2 100% 78 29.94 0.0
18 01:50 SW 5 10.00 Light Rain SCT025 BKN070 OVC080 76.3 76.3 83.7 75.6 100% 76 29.93 0.0 0.45 0.5
18 01:30 Calm 5.00 Rain SCT006 BKN030 OVC050 76.1 76.1 100% 75 29.94 0.0 0.45
18 01:10 NW 9 2.00 Heavy Rain SCT008 BKN012 OVC021 75.9 75.9 100% 75 29.96 0.0 0.36
18 00:50 N 5 10.00 Rain OVC021 77 77 100% 78 29.96 0.0 0.02
18 00:30 NW 9 10.00 Rain OVC021 77.7 77.2 98% 80 29.96 0.0 0.01
18 00:10 W 16 G 21 7.00 Light Rain BKN017 OVC023 81 79.9 97% 90 29.95 0.0 0.01
17 23:50 SW 8 10.00 Mostly Cloudy SCT017 BKN065 BKN120 82.4 81 95% 95 29.95 0.0
17 23:30 SW 12 10.00 Partly Cloudy SCT019 SCT065 SCT120 82 80.8 96% 93 29.95 0.0
17 23:10 SW 10 10.00 Mostly Cloudy BKN019 BKN065 81.7 80.8 97% 92 29.96 0.0
17 22:50 S 13 10.00 Overcast OVC019 81.9 80.6 96% 93 29.96 0.0
17 22:30 SW 12 G 20 10.00 Overcast BKN019 BKN055 OVC090 82.2 80.6 95% 94 29.97 0.0
17 22:10 SW 12 10.00 Mostly Cloudy SCT019 SCT060 BKN070 82.2 80.6 95% 94 29.97 0.0
17 21:50 SW 10 G 16 10.00 Partly Cloudy SCT020 SCT120 82.4 80.6 94% 94 29.97 0.0
17 21:30 SW 13 10.00 Fair CLR 82.4 80.6 94% 94 29.96 0.0
17 21:10 S 12 G 20 10.00 Fair CLR 82.4 80.4 94% 94 29.93 0.0
17 20:50 SW 13 G 18 10.00 Fair CLR 82.8 80.2 92% 95 29.93 0.0
17 20:30 SW 13 G 18 10.00 Fair CLR 83.3 80.2 91% 96 29.93 0.0
17 20:10 SW 12 G 18 10.00 Fair CLR 83.3 80.6 92% 96 29.91 0.0
17 19:50 SW 13 G 16 10.00 Fair CLR 83.7 80.6 89.1 82 91% 97 29.91 0.0 0.05
17 19:30 SW 14 G 20 10.00 Fair CLR 83.7 80.8 91% 97 29.9 0.0
17 19:10 SW 9 10.00 Light Rain SCT038 SCT050 BKN120 82.9 81.9 97% 97 29.9 0.0
17 18:50 SW 7 10.00 Light Rain SCT055 SCT075 SCT090 82.8 81.7 97% 96 29.9 0.0 0.02
17 18:30 S 8 10.00 Partly Cloudy SCT070 SCT100 82.4 81.7 98% 95 29.91 0.0 0.02
17 18:10 S 6 7.00 Light Rain SCT070 OVC110 82.2 81.9 99% 95 29.91 0.0 0.01
17 17:50 SW 5 7.00 Light Rain OVC110 82 82 100% 95 29.92 0.0 0.02
17 17:30 SW 5 10.00 Drizzle SCT080 BKN110 82.8 82 98% 97 29.92 0.0
17 17:10 SW 12 10.00 Light Rain OVC110 83.5 81.7 94% 98 29.92 0.0
17 16:50 SW 12 10.00 Rain SCT095 SCT110 85.1 81.7 90% 102 29.93 0.0
17 16:30 SW 15 10.00 Partly Cloudy SCT020 SCT029 85.1 81 87% 101 29.94 0.0
17 16:10 S 17 G 25 10.00 Partly Cloudy SCT020 86.7 82.8 88% 107 29.94 0.0
17 15:50 S 17 G 23 10.00 Fair CLR 88 82.9 85% 110 29.93 0.0
17 15:30 S 20 G 24 10.00 Fair CLR 87.3 82.6 86% 108 29.94 0.0
17 15:10 S 16 10.00 Fair CLR 86.2 81.7 86% 104 29.94 0.0
17 14:50 S 18 G 22 10.00 Fair CLR 87.4 82.4 85% 108 29.95 0.0
17 14:30 S 16 G 24 10.00 Fair CLR 87.4 80.8 81% 105 29.96 0.0
17 14:10 S 13 G 18 10.00 Fair CLR 88.2 82.6 84% 109 29.95 0.0
17 13:50 S 17 G 25 10.00 Partly Cloudy SCT034 90.1 83.3 92.3 83.3 80% 114 29.96 0.0
17 13:30 S 12 10.00 Mostly Cloudy BKN034 BKN047 BKN075 91.8 83.8 78% 118 29.96 0.0
17 13:10 S 8 10.00 Mostly Cloudy SCT034 BKN045 BKN075 91.2 83.8 79% 117 29.96 0.0
17 12:50 SW 8 10.00 Fair CLR 91.6 84 79% 118 29.97 0.0
17 12:30 S 8 10.00 Fair CLR 91 83.3 78% 116 29.97 0.0
17 12:10 SW 9 10.00 Fair CLR 90.5 82.9 79% 114 29.98 0.0
17 11:50 SW 10 10.00 Fair CLR 90.1 82.8 79% 113 29.98 0.0
17 11:30 SW 10 10.00 Fair CLR 89.8 82.8 80% 112 29.99 0.0
17 11:10 SW 9 10.00 Fair CLR 89.1 82.9 82% 112 29.99 0.0
17 10:50 SW 10 10.00 Fair CLR 88 82.6 84% 109 29.99 0.0
17 10:30 SW 10 10.00 Fair CLR 87.4 82.9 87% 109 29.99 0.0
17 10:10 SW 9 10.00 Partly Cloudy SCT017 87.6 82.8 86% 109 29.99 0.0
17 09:50 SW 8 10.00 Partly Cloudy SCT017 86.9 82.8 88% 107 29.99 0.0
17 09:30 SW 10 10.00 Fair CLR 86 82.2 89% 104 29.99 0.0
17 09:10 SW 13 10.00 Partly Cloudy SCT015 SCT019 85.5 82.2 90% 103 29.99 0.0
17 08:50 SW 12 10.00 Partly Cloudy SCT015 84.6 81.5 91% 100 30 0.0
17 08:30 SW 13 G 20 10.00 Fair CLR 83.5 80.8 92% 97 30 0.0
17 08:10 SW 13 G 17 10.00 Fair CLR 83.5 81.1 93% 97 30 0.0
17 07:50 SW 12 10.00 Fair CLR 83.3 80.8 83.3 81.3 92% 97 29.99 0.0
17 07:30 SW 13 G 17 10.00 Partly Cloudy SCT013 82.9 81 94% 96 29.99 0.0
17 07:10 SW 15 10.00 Partly Cloudy SCT011 82 81 97% 94 29.98 0.0
17 06:50 SW 10 G 16 10.00 Partly Cloudy SCT011 81.5 81 98% 92 29.98 0.0
17 06:30 SW 9 10.00 Partly Cloudy SCT011 81.5 81 98% 92 29.97 0.0
17 06:10 SW 9 G 16 10.00 Partly Cloudy SCT011 81.5 81.1 99% 92 29.96 0.0
17 05:50 SW 9 G 16 10.00 Partly Cloudy SCT011 81.5 81.1 99% 92 29.96 0.0
17 05:30 SW 10 10.00 Partly Cloudy SCT011 81.5 81.1 99% 92 29.95 0.0
17 05:10 SW 13 G 17 10.00 Partly Cloudy SCT011 81.5 81.1 99% 92 29.94 0.0
17 04:50 SW 10 10.00 Partly Cloudy SCT011 81.5 81 98% 92 29.93 0.0
17 04:30 SW 10 10.00 Fair CLR 81.5 80.8 98% 92 29.93 0.0
17 04:10 SW 12 G 17 10.00 Fair CLR 81.5 80.6 97% 92 29.94 0.0
17 03:50 SW 9 G 16 10.00 Fair CLR 81.5 80.2 96% 92 29.94 0.0
17 03:30 SW 10 10.00 Fair CLR 81.7 80.2 95% 92 29.94 0.0
17 03:10 SW 13 G 16 10.00 Fair CLR 81.9 79.9 94% 92 29.94 0.0
17 02:50 SW 9 10.00 Fair CLR 82.4 79.7 92% 93 29.95 0.0
17 02:30 SW 9 G 16 10.00 Fair CLR 82.8 79.9 91% 94 29.95 0.0
17 02:10 SW 10 10.00 Fair CLR 82.9 80.2 92% 95 29.96 0.0
17 01:50 SW 9 10.00 Fair CLR 83.3 80.4 89.6 83.3 91% 96 29.96 0.0
17 01:30 SW 10 10.00 Fair CLR 83.3 80.8 92% 97 29.96 0.0
17 01:10 SW 12 10.00 Fair CLR 83.5 80.8 92% 97 29.96 0.0
17 00:50 SW 12 G 18 10.00 Fair CLR 83.8 81 91% 98 29.96 0.0
17 00:30 SW 9 10.00 Fair CLR 84.2 81.5 92% 99 29.96 0.0
17 00:10 SW 8 10.00 Fair CLR 84.2 81.9 93% 100 29.96 0.0
16 23:50 SW 8 10.00 Fair CLR 84.2 82 93% 100 29.96 0.0
16 23:30 SW 10 10.00 Fair CLR 84.6 82.4 93% 102 29.96 0.0
16 23:10 SW 12 G 16 10.00 Fair CLR 84.9 82.4 92% 102 29.95 0.0
16 22:50 S 10 10.00 Fair CLR 85.1 82.4 92% 103 29.96 0.0
16 22:30 S 14 G 20 10.00 Fair CLR 85.5 82.4 91% 104 29.95 0.0
16 22:10 S 13 10.00 Fair CLR 85.8 82.8 91% 105 29.95 0.0
16 21:50 S 13 10.00 Fair CLR 86.2 83.3 91% 107 29.94 0.0
16 21:30 S 13 G 21 10.00 Fair CLR 86.9 83.3 89% 108 29.94 0.0
16 21:10 S 13 10.00 Fair CLR 86.9 83.7 90% 109 29.94 0.0
16 20:50 S 10 10.00 Fair CLR 87.4 83.8 89% 110 29.93 0.0
16 20:30 S 13 G 18 10.00 Fair CLR 88 84.2 89% 112 29.93 0.0
16 20:10 S 14 10.00 Fair CLR 88.9 84.4 87% 114 29.93 0.0
16 19:50 S 13 G 18 10.00 Partly Cloudy SCT045 89.6 84.7 94.5 89.6 86% 116 29.93 0.0
16 19:30 S 13 10.00 Partly Cloudy SCT045 90.3 85.1 85% 119 29.92 0.0
16 19:10 S 13 10.00 Partly Cloudy SCT043 90.9 85.5 84% 120 29.92 0.0
16 18:50 S 15 10.00 Fair CLR 91.4 85.5 83% 121 29.91 0.0
16 18:30 SW 10 10.00 Fair CLR 93.4 83.7 73% 120 29.9 0.0
16 18:10 SW 10 10.00 Fair CLR 93.6 83.3 72% 120 29.9 0.0
16 17:50 SW 9 10.00 Fair CLR 93.4 83.5 73% 120 29.9 0.0
16 17:30 SW 10 10.00 Fair CLR 93.9 82.9 71% 119 29.91 0.0
16 17:10 SW 10 10.00 Fair CLR 93.9 82.8 70% 119 29.91 0.0
16 16:50 SW 9 10.00 Fair CLR 93.6 83.5 73% 120 29.91 0.0
16 16:30 SW 12 10.00 Fair CLR 94.1 82.6 69% 119 29.91 0.0
16 16:10 SW 10 G 17 10.00 Fair CLR 93.2 83.1 73% 119 29.91 0.0
16 15:50 SW 13 G 18 10.00 Fair CLR 94.5 84.2 72% 123 29.92 0.0
16 15:30 SW 13 10.00 Fair CLR 93.4 83.7 73% 120 29.93 0.0
16 15:10 SW 14 G 18 10.00 Fair CLR 93.9 83.7 72% 121 29.93 0.0
16 14:50 SW 13 10.00 Fair CLR 93.7 84.6 75% 123 29.93 0.0
16 14:30 SW 8 10.00 Fair CLR 93.2 83.8 74% 120 29.94 0.0
16 14:10 SW 12 10.00 Fair CLR 93.6 83.8 73% 121 29.94 0.0
16 13:50 SW 12 10.00 Fair CLR 93.6 83.8 93.6 82.2 73% 121 29.95 0.0
16 13:30 S 13 10.00 Fair CLR 93 82.8 72% 118 29.95 0.0
16 13:10 SW 12 G 16 10.00 Fair CLR 92.7 82.8 73% 117 29.96 0.0
16 12:50 SW 9 10.00 Fair CLR 92.3 84 77% 119 29.96 0.0
16 12:30 SW 10 G 16 10.00 Fair CLR 91.4 83.3 77% 116 29.97 0.0
16 12:10 SW 12 10.00 Fair CLR 90.7 82.9 78% 114 29.97 0.0
16 11:50 S 10 10.00 Fair CLR 90.1 82.9 79% 113 29.97 0.0
16 11:30 S 10 10.00 Fair CLR 89.6 83.3 82% 113 29.98 0.0
16 11:10 S 10 10.00 Fair CLR 88.7 82.9 83% 111 29.97 0.0
16 10:50 S 10 10.00 Fair CLR 87.8 82.4 84% 108 29.97 0.0
16 10:30 SW 9 10.00 Fair CLR 87.4 82 84% 107 29.98 0.0
16 10:10 SW 10 10.00 Fair CLR 86.4 81.5 85% 104 29.98 0.0
16 09:50 SW 12 10.00 Fair CLR 86 81.7 87% 104 29.98 0.0
16 09:30 S 9 10.00 Fair CLR 85.1 81.3 89% 101 29.98 0.0
16 09:10 SW 9 10.00 Fair CLR 84.6 81.1 90% 100 29.98 0.0
16 08:50 SW 8 10.00 Fair CLR 83.7 81 92% 98 29.98 0.0
16 08:30 SW 12 10.00 Fair CLR 82.9 80.8 93% 96 29.98 0.0
16 08:10 SW 10 10.00 Fair CLR 82.4 80.6 94% 94 29.98 0.0
16 07:50 SW 10 10.00 Fair CLR 82 80.4 82 80.6 95% 93 29.98 0.0
16 07:30 SW 10 10.00 Fair CLR 81.7 80.4 96% 92 29.98 0.0
16 07:10 SW 9 10.00 Fair CLR 81 80.6 99% 90 29.98 0.0
16 06:50 SW 9 10.00 Fair CLR 81 80.6 99% 90 29.97 0.0
16 06:30 SW 8 10.00 Fair CLR 80.8 80.2 98% 90 29.97 0.0
16 06:10 SW 8 10.00 Fair CLR 80.6 80.2 99% 89 29.97 0.0
16 05:50 SW 9 10.00 Fair CLR 80.8 80.2 98% 90 29.96 0.0
16 05:30 SW 8 10.00 Fair CLR 81 80.1 97% 90 29.96 0.0
16 05:10 SW 8 10.00 Fair CLR 81.1 79.9 96% 90 29.95 0.0
16 04:50 SW 9 10.00 Fair CLR 81.3 79.9 95% 91 29.95 0.0
16 04:30 SW 7 10.00 Fair CLR 80.8 79.9 97% 89 29.94 0.0
16 04:10 SW 7 10.00 Fair CLR 80.6 79.9 98% 89 29.94 0.0
16 03:50 SW 8 10.00 Fair CLR 80.8 79.7 97% 89 29.94 0.0
16 03:30 SW 6 10.00 Fair CLR 80.8 79.7 97% 89 29.94 0.0
16 03:10 SW 8 10.00 Fair CLR 81 79.7 96% 90 29.94 0.0
16 02:50 SW 6 10.00 Fair CLR 81.3 79.2 93% 90 29.94 0.0
16 02:30 SW 7 10.00 Fair CLR 81.5 78.8 92% 90 29.94 0.0
16 02:10 SW 7 10.00 Fair CLR 81.7 78.3 89% 90 29.95 0.0
16 01:50 SW 9 10.00 Fair CLR 82.4 78.1 88.7 82.2 87% 92 29.95 0.0
16 01:30 SW 9 10.00 Fair CLR 82.6 77.9 86% 92 29.95 0.0
16 01:10 SW 10 10.00 Fair CLR 82.9 78.6 87% 93 29.96 0.0
16 00:50 SW 10 10.00 Fair CLR 83.1 79.7 89% 95 29.96 0.0
16 00:30 S 10 10.00 Fair CLR 83.3 80.8 92% 97 29.96 0.0
16 00:10 S 8 10.00 Fair CLR 83.7 82 95% 99 29.96 0.0
15 23:50 SW 8 10.00 Fair CLR 84.2 81.7 92% 100 29.96 0.0
15 23:30 SW 8 10.00 Fair CLR 84.4 82.4 94% 101 29.96 0.0
15 23:10 SW 9 10.00 Fair CLR 85.1 82.9 93% 104 29.96 0.0
15 22:50 S 9 10.00 Fair CLR 85.5 83.3 93% 105 29.96 0.0
15 22:30 S 7 10.00 Fair CLR 85.5 83.3 93% 105 29.96 0.0
15 22:10 S 7 10.00 Fair CLR 86 82.9 91% 106 29.96 0.0
15 21:50 SW 5 10.00 Fair CLR 85.6 82.6 91% 104 29.95 0.0
15 21:30 SW 5 10.00 Fair CLR 85.6 81.7 88% 103 29.94 0.0
15 21:10 S 6 10.00 Fair CLR 86 79.7 82% 101 29.94 0.0
15 20:50 S 9 10.00 Partly Cloudy SCT065 86.7 79.3 79% 101 29.94 0.0
15 20:30 SW 8 10.00 Partly Cloudy SCT065 86.9 79.3 78% 102 29.94 0.0
15 20:10 SW 8 10.00 Partly Cloudy SCT050 SCT065 88.7 82.4 82% 110 29.95 0.0
15 19:50 S 8 10.00 Partly Cloudy SCT065 88.3 81.9 95.2 88.3 81% 108 29.95 0.0
15 19:30 S 9 G 17 10.00 Fair CLR 89.2 81.5 78% 109 29.93 0.0
15 19:10 S 10 10.00 Partly Cloudy SCT055 SCT070 89.6 82.6 80% 112 29.91 0.0
15 18:50 S 9 10.00 Partly Cloudy SCT065 SCT070 90.5 82.8 78% 114 29.92 0.0
15 18:30 S 8 10.00 Partly Cloudy SCT046 91.4 83.1 77% 116 29.92 0.0
15 18:10 S 7 10.00 Partly Cloudy SCT048 SCT060 93.7 84 73% 121 29.91 0.0
15 17:50 S 8 10.00 Partly Cloudy SCT050 SCT060 95.2 83.5 69% 122 29.92 0.0
15 17:30 S 6 10.00 Partly Cloudy SCT050 95.2 83.3 69% 122 29.93 0.0
15 17:10 S 5 10.00 Fair CLR 95.2 83.5 69% 122 29.93 0.0
15 16:50 SW 3 10.00 Fair CLR 94.8 84.6 72% 124 29.93 0.0
15 16:30 S 3 10.00 Fair CLR 94.3 83.8 72% 122 29.93 0.0
15 16:10 S 3 10.00 Fair CLR 94.5 82.9 69% 120 29.93 0.0
15 15:50 S 6 10.00 Fair CLR 94.6 81.9 67% 118 29.95 0.0
15 15:30 S 5 10.00 Fair CLR 95 81.1 64% 117 29.96 0.0
15 15:10 S 3 10.00 Fair CLR 95 78.3 59% 112 29.96 0.0
15 14:50 S 5 10.00 Fair CLR 94.5 79.5 62% 113 29.98 0.0
15 14:30 NW 3 10.00 Partly Cloudy SCT095 94.5 79.5 62% 113 29.98 0.0
15 14:10 W 3 10.00 Partly Cloudy SCT095 94.5 80.1 63% 114 29.99 0.0
15 13:50 SW 3 10.00 Fair CLR 94.1 80.1 94.5 82.2 64% 114 30 0.0
15 13:30 Calm 10.00 Fair CLR 94.1 78.1 60% 110 30 0.0
15 13:10 SW 3 10.00 Fair CLR 93.6 74.1 53% 104 30 0.0
15 12:50 S 3 10.00 Fair CLR 92.5 78.1 63% 108 30.01 0.0
15 12:30 S 3 10.00 Fair CLR 91.6 81.9 73% 113 30.01 0.0
15 12:10 SW 5 10.00 Fair CLR 90.7 83.3 79% 115 30.01 0.0
15 11:50 SW 6 10.00 Fair CLR 89.6 84.4 85% 116 30.02 0.0
15 11:30 SW 5 10.00 Fair CLR 89.2 84.2 85% 115 30.02 0.0
15 11:10 SW 5 10.00 Fair CLR 88.3 84.2 88% 113 30.02 0.0
15 10:50 SW 7 10.00 Fair CLR 88 83.8 88% 111 30.02 0.0
15 10:30 W 6 10.00 Fair CLR 87.3 83.1 88% 109 30.03 0.0
15 10:10 W 5 10.00 Fair CLR 86.4 82.9 90% 106 30.04 0.0
15 09:50 W 3 10.00 Fair CLR 86 82.8 90% 105 30.03 0.0
15 09:30 W 7 10.00 Fair CLR 85.1 82.4 92% 103 30.04 0.0
15 09:10 SW 5 10.00 Partly Cloudy SCT100 84.4 82.2 93% 101 30.03 0.0
15 08:50 SW 5 10.00 Mostly Cloudy BKN100 83.3 82.4 97% 99 30.04 0.0
15 08:30 W 7 10.00 Partly Cloudy SCT100 82.9 82.4 98% 98 30.03 0.0
15 08:10 SW 6 10.00 Fair CLR 82.9 82.4 98% 98 30.03 0.0
15 07:50 SW 8 10.00 Partly Cloudy SCT010 82.2 82.2 82.2 79.9 100% 95 30.03 0.0
15 07:30 SW 7 7.00 Fair CLR 81.5 81.5 100% 93 30.02 0.0
15 07:10 SW 7 7.00 Fair CLR 81.1 81.1 100% 91 30.02 0.0
15 06:50 SW 7 7.00 Fair CLR 80.8 80.8 100% 90 30.02 0.0
15 06:30 SW 6 7.00 Fair CLR 80.6 80.6 100% 89 30.01 0.0
15 06:10 SW 7 7.00 Partly Cloudy SCT009 80.2 80.2 100% 88 30.01 0.0
15 05:50 SW 5 10.00 Fair CLR 80.6 80.6 100% 89 30.01 0.0
15 05:30 SW 5 10.00 Fair CLR 80.6 80.6 100% 89 30 0.0
15 05:10 SW 6 10.00 Fair CLR 80.6 80.6 100% 89 30 0.0
15 04:50 SW 7 10.00 Fair CLR 80.2 80.2 100% 88 30 0.0
15 04:30 SW 6 10.00 Fair CLR 79.9 79.9 100% 87 29.99 0.0
15 04:10 SW 6 10.00 Fair CLR 80.6 80.6 100% 89 29.99 0.0
15 03:50 SW 8 10.00 Fair CLR 80.8 80.8 100% 90 29.99 0.0
15 03:30 SW 6 10.00 Fair CLR 80.2 80.2 100% 88 29.99 0.0
15 03:10 SW 5 10.00 Fair CLR 80.4 80.4 100% 89 29.99 0.0
15 02:50 SW 8 10.00 Fair CLR 80.6 80.6 100% 89 29.99 0.0
15 02:30 SW 6 10.00 Fair CLR 80.6 80.6 100% 89 30 0.0
Date Time (edt) Wind (mph) Vis. (mi.) Weather Sky Cond. Air Dwpt Max. Min. Relative Humidity Wind Chill (°F) Heat Index (°F) altimeter (in) sea level (mb) 1 hr 3 hr 6 hr
6 hour
Temperature (ºF) Pressure Precipitation (in)